TimeEDT,TemperatureF,Dew PointF,Humidity,Sea Level PressureIn,VisibilityMPH,Wind Direction,Wind SpeedMPH,Gust SpeedMPH,PrecipitationIn,Events,Conditions,WindDirDegrees,DateUTC
12:41 AM,64.4,62.6,94,29.88,4.0,SSW,3.5,-,N/A,,Mostly Cloudy,210,2013-06-24 04:41:00
12:50 AM,64.4,62.6,94,29.88,4.0,SSW,4.6,-,N/A,,Mostly Cloudy,210,2013-06-24 04:50:00
12:53 AM,64.0,63.0,96,29.88,4.0,SSW,3.5,-,N/A,,Mostly Cloudy,210,2013-06-24 04:53:00
1:53 AM,66.0,64.0,93,29.88,5.0,SSW,4.6,-,N/A,,Overcast,200,2013-06-24 05:53:00
2:15 AM,66.2,64.4,94,29.87,3.0,South,4.6,-,N/A,,Overcast,190,2013-06-24 06:15:00
2:27 AM,66.2,64.4,94,29.87,2.0,SSW,4.6,-,N/A,,Overcast,200,2013-06-24 06:27:00
2:36 AM,64.4,64.4,100,29.87,1.5,SSW,3.5,-,N/A,,Overcast,210,2013-06-24 06:36:00
2:43 AM,64.4,64.4,100,29.88,1.2,SSW,3.5,-,N/A,,Overcast,210,2013-06-24 06:43:00
2:53 AM,64.9,64.9,100,29.87,1.2,SSW,4.6,-,N/A,,Overcast,200,2013-06-24 06:53:00
3:04 AM,64.4,64.4,100,29.87,1.8,SSW,4.6,-,N/A,,Overcast,200,2013-06-24 07:04:00
3:13 AM,64.4,64.4,100,29.87,2.0,South,3.5,-,N/A,,Overcast,190,2013-06-24 07:13:00
3:18 AM,64.4,64.4,100,29.87,1.2,SSW,4.6,-,N/A,,Overcast,200,2013-06-24 07:18:00
3:25 AM,64.4,64.4,100,29.87,0.8,South,5.8,-,N/A,,Overcast,180,2013-06-24 07:25:00
3:50 AM,64.4,64.4,100,29.87,1.5,SSW,3.5,-,N/A,,Mostly Cloudy,200,2013-06-24 07:50:00
3:53 AM,64.9,64.0,97,29.87,2.0,SSW,3.5,-,N/A,,Mostly Cloudy,200,2013-06-24 07:53:00
3:57 AM,64.4,64.4,100,29.87,3.0,SSW,4.6,-,N/A,,Scattered Clouds,200,2013-06-24 07:57:00
4:53 AM,66.0,64.9,96,29.87,4.0,Calm,Calm,-,N/A,,Clear,0,2013-06-24 08:53:00
5:53 AM,66.9,64.9,93,29.88,4.0,WSW,3.5,-,N/A,,Partly Cloudy,250,2013-06-24 09:53:00
6:53 AM,66.9,64.9,93,29.87,4.0,Calm,Calm,-,0.00,,Partly Cloudy,0,2013-06-24 10:53:00
7:53 AM,68.0,66.0,93,29.85,4.0,SW,3.5,-,0.01,Rain,Light Rain,220,2013-06-24 11:53:00
8:51 AM,69.8,66.2,88,29.85,5.0,Variable,3.5,-,0.02,,Partly Cloudy,0,2013-06-24 12:51:00
8:53 AM,70.0,66.9,90,29.85,5.0,WSW,4.6,-,0.02,,Partly Cloudy,240,2013-06-24 12:53:00
9:53 AM,72.0,68.0,87,29.86,5.0,WSW,6.9,-,N/A,,Scattered Clouds,250,2013-06-24 13:53:00
10:53 AM,73.9,66.9,79,29.84,6.0,WSW,9.2,-,N/A,,Haze,250,2013-06-24 14:53:00
11:18 AM,73.4,66.2,78,29.84,7.0,WSW,6.9,-,N/A,,Mostly Cloudy,240,2013-06-24 15:18:00
11:49 AM,75.2,66.2,73,29.83,7.0,SSW,6.9,-,N/A,,Mostly Cloudy,210,2013-06-24 15:49:00
11:53 AM,77.0,68.0,74,29.82,8.0,SSW,6.9,-,N/A,,Mostly Cloudy,210,2013-06-24 15:53:00
12:53 PM,75.9,66.9,74,29.82,7.0,SW,6.9,-,N/A,,Overcast,230,2013-06-24 16:53:00
1:53 PM,79.0,68.0,69,29.80,8.0,SW,10.4,-,N/A,,Mostly Cloudy,230,2013-06-24 17:53:00
2:53 PM,79.0,66.9,66,29.78,8.0,WSW,10.4,-,N/A,,Mostly Cloudy,250,2013-06-24 18:53:00
3:53 PM,81.0,66.9,62,29.76,10.0,WSW,9.2,17.3,N/A,,Partly Cloudy,250,2013-06-24 19:53:00
4:53 PM,81.0,64.9,58,29.75,10.0,West,9.2,-,N/A,,Mostly Cloudy,260,2013-06-24 20:53:00
5:53 PM,81.0,64.0,56,29.74,10.0,West,11.5,-,N/A,,Partly Cloudy,260,2013-06-24 21:53:00
6:53 PM,79.0,64.9,62,29.74,10.0,WSW,4.6,-,N/A,,Overcast,250,2013-06-24 22:53:00
7:53 PM,75.9,64.9,69,29.75,10.0,SW,5.8,-,N/A,,Mostly Cloudy,220,2013-06-24 23:53:00
8:53 PM,72.0,64.9,78,29.75,10.0,SSW,4.6,-,N/A,,Clear,200,2013-06-25 00:53:00
9:53 PM,70.0,66.0,87,29.76,10.0,SW,3.5,-,0.00,Rain,Light Rain,230,2013-06-25 01:53:00
10:53 PM,71.1,66.9,87,29.75,10.0,South,4.6,-,0.00,Rain,Light Rain,190,2013-06-25 02:53:00
11:53 PM,69.1,66.9,93,29.74,9.0,South,4.6,-,0.00,,Clear,190,2013-06-25 03:53:00